Weather Service Report


340 
ASUS45 KSLC 271110
RWRUT 

UTAH REGIONAL WEATHER ROUNDUP
NATIONAL WEATHER SERVICE SALT LAKE CITY UT
400 AM MST FRI FEB 27 2015

UTZ001>011-023>025-271200-

NORTHERN UTAH
  
CITY           SKY/WX    TMP DP  RH WIND       PRES   REMARKS
BRIGHAM CITY   CLOUDY    28  24  82 CALM      29.85F                  
HILL AFB       CLOUDY    29  22  73 E10       29.84F WCI  20          
LOGAN          CLOUDY    23  20  88 NW3       29.85F                  
OGDEN          CLOUDY    30  23  75 S9        29.84F WCI  22          
PROVO AIRPORT  MOCLDY    32  28  86 W3        29.86F                  
SALT LAKE CITY CLOUDY    30  25  81 SE8       29.85F WCI  22          
VERNAL         CLOUDY    25  11  55 NE7       29.87F WCI  17          
WENDOVER       CLOUDY    36  27  69 S3        29.84F                  
HEBER CITY     CLEAR     21  16  79 E3        29.84S                  
WEST JORDAN    CLOUDY    27  23  86 SW5       29.85F WCI  21          

$$

UTZ012>022-026-027-271200-

SOUTHERN/CENTRAL UTAH
  
CITY           SKY/WX    TMP DP  RH WIND       PRES   REMARKS
BLANDING       CLOUDY    26  25  97 CALM      29.90F                  
BRYCE CANYON   PTCLDY     8   6  92 W5        29.84S WCI   0          
CEDAR CITY     PTCLDY    23  20  88 CALM      29.83F                  
DELTA          CLOUDY    27  24  86 S6        29.85F WCI  21          
HANKSVILLE     CLOUDY    21  21 100 MISG      29.86F VSB 1/4          
MILFORD        MOCLDY    25  21  85 SW7       29.85F WCI  17          
MOAB/CYNLANDS  CLOUDY    33  32  96 CALM      29.81F                  
PRICE          CLEAR     21  14  74 N5        29.80S WCI  15          
ST GEORGE      MOSUNNY   45  27  49 SE7       29.84F                  
KANAB            N/A     32  25  74 CALM      29.87F                  

$$

REGIONAL REPORTS     COLORADO/ARIZONA
  
CITY           SKY/WX    TMP DP  RH WIND       PRES   REMARKS
CRAIG, CO      CLOUDY    12   7  80 CALM      29.87S                  
GRAND JUNCTION LGT SNOW  31  30  96 E3        29.81F FOG              
RIFLE          CLOUDY    27  19  72 NW6       29.81F WCI  20          
MONTROSE       MOCLDY    25  20  81 S6        29.83F WCI  18          
CORTEZ         CLOUDY    28  26  92 NW3       29.85R                  
PAGE, AZ       CLOUDY    38  32  79 CALM      29.83F                  
GRAND CANYON   MOCLDY    21  19  92 CALM      29.83F                  
KINGMAN        MOCLDY    43  25  49 NE5       29.77F                  
FLAGSTAFF      PTCLDY    20  15  81 CALM      29.83F                  

$$

REGIONAL REPORTS    NEVADA/IDAHO/WYOMING
  
CITY           SKY/WX    TMP DP  RH WIND       PRES   REMARKS
LAS VEGAS, NV  PTCLDY    52  23  32 CALM      29.75F                  
ELY            PTCLDY    18  13  80 S12       29.84F WCI   5          
ELKO           CLOUDY    30  27  88 CALM      29.82F                  
POCATELLO, ID  CLOUDY    30  29  96 W5        29.83F WCI  25          
BURLEY         CLOUDY    33  31  92 SW3       29.80F                  
EVANSTON, WY   CLOUDY    14  11  87 E9        29.82F WCI   2          
ROCK SPRINGS   CLOUDY     4   0  83 E5        29.88F WCI  -5          

$$

Return to Home page


Western Regional Climate Center, wrcc@dri.edu